This is the latest recevied weather packets stored in our database for station/object KF5WCW-1. If no packets are shown the sender has not sent any weather packets the latest 10 day(s).
| Time | Temp. | Humidity | Pressure | Rain* | Wind** | Luminosity | Snow |
|---|---|---|---|---|---|---|---|
| 1777830374 | 16.11° C | 26% | 0 hPa | 0 mm | - | - | - |
| 1777830074 | 16.11° C | 27% | 0 hPa | 0 mm | - | - | - |
| 1777829774 | 15.56° C | 25% | 0 hPa | 0 mm | - | - | - |
| 1777829474 | 16.11° C | 26% | 0 hPa | 0 mm | - | - | - |
| 1777829174 | 15.56° C | 28% | 0 hPa | 0 mm | - | - | - |
| 1777828874 | 15° C | 27% | 0 hPa | 0 mm | - | - | - |
| 1777828574 | 14.44° C | 28% | 0 hPa | 0 mm | - | - | - |
| 1777828274 | 14.44° C | 31% | 0 hPa | 0 mm | - | - | - |
| 1777827974 | 13.89° C | 32% | 0 hPa | 0 mm | - | - | - |
| 1777827674 | 13.89° C | 33% | 0 hPa | 0 mm | - | - | - |
| 1777827374 | 13.33° C | 32% | 0 hPa | 0 mm | - | - | - |
| 1777827074 | 13.33° C | 34% | 0 hPa | 0 mm | - | - | - |
| 1777826774 | 12.78° C | 36% | 0 hPa | 0 mm | - | - | - |
| 1777826474 | 12.22° C | 36% | 0 hPa | 0 mm | - | - | - |
| 1777826174 | 12.78° C | 38% | 0 hPa | 0 mm | - | - | - |
| 1777825874 | 12.22° C | 39% | 0 hPa | 0 mm | - | - | - |
| 1777825574 | 12.22° C | 41% | 0 hPa | 0 mm | - | - | - |
| 1777825274 | 11.67° C | 42% | 0 hPa | 0 mm | - | - | - |
| 1777824974 | 11.67° C | 43% | 0 hPa | 0 mm | - | - | - |
| 1777824674 | 11.11° C | 45% | 0 hPa | 0 mm | - | - | - |
| 1777824374 | 10° C | 45% | 0 hPa | 0 mm | - | - | - |
| 1777824074 | 10° C | 47% | 0 hPa | 0 mm | - | - | - |
| 1777823774 | 9.44° C | 46% | 0 hPa | 0 mm | - | - | - |
| 1777823474 | 9.44° C | 47% | 0 hPa | 0 mm | - | - | - |
| 1777823174 | 8.89° C | 48% | 0 hPa | 0 mm | - | - | - |
* Rain latest hour (hover to see other rain measurements)
** Current wind speed in m/s (hover to see current wind gust speed)